Wind_Speed
39 41 43 45 46 46 45 46 46 46 46 46 47 47 47 47 47 48 48 48 48 49 49 48 49 49 49 49 50 49 49 49 48 46 46 47 47 47 47 47 46 45 45
38 40 41 43 43 44 44 44 44 46 47 46 47 48 48 48 48 49 49 49 49 49 49 49 49 49 49 49 49 49 49 49 48 47 46 47 47 46 45 45 44 43 43
37 38 38 40 42 43 43 43 44 44 45 45 46 47 47 47 47 48 49 48 47 46 47 48 48 48 48 47 47 47 48 47 47 47 46 46 46 44 44 43 42 42 41
35 36 36 37 38 40 41 42 42 43 43 44 45 45 46 46 46 46 46 46 46 46 45 46 46 46 45 45 45 45 45 45 45 46 45 44 44 43 43 41 40 40 39
34 35 35 36 36 38 39 39 39 41 42 42 42 43 43 44 44 44 43 44 44 44 43 43 44 45 45 44 44 44 44 43 43 43 42 42 41 40 40 39 39 38 38
33 34 35 36 36 36 37 37 37 38 39 39 39 40 41 42 42 42 42 43 42 42 42 42 43 44 43 43 43 43 43 42 41 40 40 40 39 38 38 38 38 37 37
32 33 33 34 34 35 35 35 35 35 36 36 37 37 38 39 40 40 41 41 41 40 40 40 42 41 41 42 41 41 40 40 39 39 39 38 38 37 36 36 37 36 35
31 31 31 31 31 32 32 33 33 34 34 34 35 36 36 36 37 38 38 39 38 38 38 39 39 38 38 39 39 38 38 38 37 36 35 35 34 34 35 35 35 34 33
29 30 30 30 30 30 30 30 30 30 31 32 33 34 34 33 34 35 35 36 37 37 37 37 37 36 36 35 35 35 35 34 33 33 33 33 33 33 33 33 33 33 32
28 29 29 29 30 29 29 29 28 28 29 30 31 32 32 32 32 33 34 34 35 35 35 34 34 34 34 34 33 33 33 32 32 32 32 33 32 32 32 32 32 32 31
27 28 29 29 29 29 28 28 27 27 28 28 29 29 30 30 30 31 32 32 33 33 32 33 33 33 32 33 33 32 32 32 31 32 32 32 32 32 32 31 30 30 29
25 26 26 27 27 27 26 26 26 26 27 27 27 28 28 28 28 29 30 30 31 30 30 30 30 30 30 30 31 32 32 31 31 30 30 30 30 29 28 27 26 26 26
24 23 23 23 22 22 21 21 21 22 23 24 24 25 26 27 28 28 28 28 28 28 28 28 27 28 28 29 30 30 30 30 29 29 28 28 27 26 25 24 24 24 24
23 22 21 20 19 19 19 18 19 19 20 21 22 23 23 24 24 24 25 25 25 25 25 25 25 25 27 27 27 27 28 28 28 27 25 25 24 23 24 24 23 23 23
21 20 19 19 19 18 18 19 19 19 19 19 19 20 20 21 21 21 22 22 22 22 23 23 24 24 24 25 25 25 25 25 24 23 23 23 23 23 23 23 22 22 22
20 20 19 19 18 18 18 18 18 18 18 18 18 19 19 19 19 19 19 20 20 19 20 20 21 21 21 21 22 22 22 21 21 21 22 22 21 21 21 21 21 20 20
19 19 19 19 18 18 18 18 18 17 17 17 17 17 17 17 17 17 18 18 18 17 18 18 18 18 18 18 19 19 19 19 19 20 20 20 20 20 20 19 19 19 19
17 17 17 17 17 17 16 16 16 15 15 15 15 15 14 15 16 16 17 17 17 17 17 16 16 16 16 16 17 17 17 18 18 18 18 18 18 17 17 17 17 18 18
16 16 15 16 15 15 15 15 14 14 13 13 13 13 14 14 14 15 15 15 15 15 15 15 15 15 16 16 16 16 16 16 16 16 16 16 15 15 15 15 15 15 15
15 15 15 15 15 15 14 14 13 13 12 12 13 13 13 14 14 14 15 15 15 14 14 14 14 14 14 14 14 15 15 15 15 15 14 14 14 14 13 13 13 13 13
15 14 14 14 14 14 13 13 12 12 12 12 13 13 13 14 14 14 15 14 14 14 14 14 14 14 13 13 13 13 13 13 12 12 12 12 12 11 11 11 11 11 11
14 14 13 13 13 13 13 13 13 12 12 13 13 13 13 14 14 14 14 13 13 13 13 12 12 11 11 11 11 11 11 11 11 10 9 9 10 10 10 10 10 10 10
14 14 14 14 14 14 13 13 13 13 13 13 13 13 13 13 13 13 13 12 11 11 11 11 10 10 10 10 10 10 10 10 9 9 9 8 8 8 8 8 9 9 9
13 13 13 14 14 13 13 13 13 13 13 13 13 13 13 13 12 12 11 10 10 10 10 10 9 10 10 10 10 10 10 10 10 9 8 8 7 7 7 7 7 7 8
13 13 13 13 13 12 12 12 12 12 12 13 13 13 13 12 12 11 10 9 9 9 9 9 8 9 9 9 9 10 10 10 10 9 8 8 8 7 7 7 7 7 7
12 12 12 12 11 11 11 11 11 12 12 13 13 13 12 11 11 11 10 9 9 8 9 9 8 8 8 9 9 9 9 9 9 9 9 9 8 8 7 7 7 7 7
Wind_Direction
268 267 265 263 262 261 261 261 261 261 260 260 260 261 261 261 262 264 264 265 265 266 267 268 268 269 270 272 273 273 274 274 274 274 275 276 277 278 278 279 278 277 277
270 268 266 265 263 262 262 262 262 262 261 260 261 261 261 262 263 264 264 265 266 267 267 268 269 269 270 271 272 273 274 274 274 275 275 276 278 278 278 278 279 278 278
272 271 268 266 264 263 262 262 261 262 262 262 262 262 262 262 263 264 265 264 265 266 266 268 269 270 270 271 272 273 273 274 275 274 274 275 276 277 278 279 279 279 279
273 272 271 269 266 263 262 262 262 263 264 264 263 262 262 262 262 263 263 264 264 266 267 268 269 269 271 271 271 272 272 273 275 274 274 275 276 277 278 278 279 280 279
273 271 271 270 269 266 264 264 265 264 264 264 263 263 262 262 262 263 264 264 265 266 268 269 269 270 270 269 269 270 272 273 274 274 274 274 275 276 276 277 278 278 278
274 272 271 271 270 267 265 267 266 265 264 262 262 262 262 263 263 263 263 264 265 266 267 269 270 271 269 268 269 271 271 272 273 273 274 274 274 275 275 276 277 276 277
276 274 273 270 269 268 267 267 266 265 263 261 262 262 263 263 263 263 263 264 265 266 268 269 270 270 269 267 269 271 272 272 271 273 274 274 274 274 274 275 276 277 277
277 275 273 271 271 270 268 267 266 266 264 262 262 262 263 264 265 264 263 263 264 266 267 268 268 269 269 268 269 269 269 270 271 273 273 273 273 274 274 275 276 276 277
277 275 272 271 272 270 269 268 266 265 265 264 265 264 264 264 264 265 265 264 265 266 267 268 268 267 268 267 267 267 267 267 269 271 273 273 274 275 276 275 276 276 278
277 274 272 271 271 270 270 270 268 267 268 268 267 265 265 264 264 266 265 265 267 267 268 269 269 267 265 266 267 267 267 268 270 272 274 275 275 274 275 276 276 275 276
279 275 273 273 272 270 269 269 268 268 268 269 268 266 266 267 267 266 266 266 267 267 269 270 269 268 267 266 265 267 268 269 271 273 275 276 275 274 273 274 274 273 273
283 281 278 277 275 273 269 267 267 267 268 269 268 267 266 267 268 268 267 268 268 268 268 269 268 268 267 266 265 267 270 271 273 274 275 275 275 275 273 272 271 269 271
285 285 283 280 278 275 273 270 269 269 270 270 270 269 268 269 269 269 268 269 269 270 270 268 267 266 265 267 267 268 270 271 271 272 272 272 273 272 270 269 268 268 270
285 285 282 279 276 276 276 276 277 276 275 274 273 271 269 269 269 268 268 270 270 271 270 268 267 266 268 268 267 268 268 268 269 269 269 271 270 267 266 268 267 265 268
284 283 280 278 278 277 277 279 280 279 279 278 276 274 272 272 273 272 272 271 271 271 270 269 267 267 268 268 267 268 268 268 268 268 267 269 268 267 266 266 265 264 268
283 282 278 278 277 276 277 279 280 280 280 278 277 275 273 273 273 275 274 274 274 273 273 272 268 268 269 269 269 268 266 265 266 267 267 268 267 267 265 263 262 263 265
281 278 276 276 276 277 279 281 282 281 280 280 278 276 274 274 275 274 272 272 271 272 272 269 267 268 270 271 270 268 265 265 266 267 268 267 267 267 263 261 261 261 262
280 279 278 276 276 277 280 284 285 282 281 279 278 277 276 277 276 274 274 273 271 271 271 268 268 270 271 271 269 265 262 263 264 266 266 266 265 264 262 260 259 260 261
280 278 276 275 277 279 282 284 284 283 283 282 279 278 279 280 278 277 277 276 274 272 271 271 271 272 273 270 266 262 262 263 262 262 263 264 264 263 262 262 261 261 262
278 277 276 275 276 278 280 283 285 287 286 284 284 284 285 282 279 279 279 277 274 272 272 272 274 276 276 272 266 262 261 263 262 261 261 262 263 263 262 262 260 262 263
278 277 275 274 274 277 281 284 285 286 286 287 288 289 288 285 282 281 280 277 274 272 271 271 273 274 273 266 261 260 260 260 260 262 263 261 260 258 257 255 253 256 257
276 276 275 274 276 278 280 281 282 283 286 287 288 288 289 288 285 282 280 277 275 273 269 268 270 269 264 261 260 259 258 257 257 259 260 259 255 251 250 248 249 252 255
275 276 277 277 277 278 278 277 279 282 284 285 286 287 288 288 285 281 278 275 273 271 267 265 265 261 258 259 259 257 254 252 254 258 260 256 249 245 245 248 249 253 256
277 276 277 278 278 278 277 276 279 281 283 284 286 287 285 284 283 280 276 272 270 268 267 266 263 260 258 256 253 252 249 249 249 251 251 247 243 240 243 248 247 248 254
279 279 279 279 278 278 278 278 278 281 283 284 285 285 284 283 280 276 270 267 266 265 265 266 266 262 258 255 253 251 248 246 245 247 249 249 246 244 244 246 249 253 257
283 281 280 280 279 280 279 278 278 280 282 283 285 285 285 281 276 270 265 262 261 263 264 264 267 265 260 257 254 248 244 244 245 247 248 246 243 242 244 248 248 253 256
Height
5610 5610 5609 5609 5609 5610 5611 5612 5614 5615 5616 5618 5619 5619 5620 5621 5622 5623 5623 5624 5624 5624 5624 5624 5624 5624 5623 5622 5621 5620 5619 5617 5617 5617 5615 5612 5610 5608 5606 5603 5602 5600 5599
5599 5598 5597 5597 5597 5597 5598 5599 5601 5602 5603 5604 5605 5606 5607 5608 5609 5609 5610 5610 5611 5611 5611 5611 5611 5610 5610 5609 5608 5607 5606 5605 5604 5604 5602 5600 5598 5595 5594 5592 5590 5589 5587
5587 5587 5585 5585 5585 5585 5585 5587 5588 5590 5591 5591 5592 5593 5594 5595 5595 5596 5596 5597 5597 5597 5598 5598 5598 5597 5597 5596 5595 5594 5593 5592 5591 5590 5590 5588 5586 5584 5583 5581 5579 5578 5576
5577 5576 5575 5573 5573 5573 5574 5575 5576 5577 5578 5579 5579 5580 5581 5582 5582 5583 5583 5584 5584 5585 5584 5585 5585 5584 5584 5583 5582 5582 5581 5580 5578 5577 5577 5576 5574 5573 5571 5570 5569 5567 5566
5567 5566 5565 5563 5563 5562 5562 5563 5564 5565 5565 5566 5567 5568 5569 5570 5570 5571 5571 5571 5572 5572 5572 5572 5572 5572 5572 5571 5571 5570 5569 5568 5567 5566 5565 5564 5563 5562 5561 5560 5559 5557 5556
5557 5556 5555 5553 5552 5552 5552 5552 5553 5553 5554 5555 5555 5556 5557 5558 5558 5558 5559 5559 5560 5560 5560 5560 5560 5560 5559 5559 5559 5558 5557 5557 5556 5555 5555 5554 5553 5552 5551 5550 5549 5548 5547
5548 5547 5545 5544 5543 5542 5542 5542 5542 5543 5544 5544 5545 5546 5546 5547 5547 5547 5547 5547 5548 5548 5548 5548 5549 5548 5548 5548 5548 5547 5547 5546 5545 5545 5544 5544 5543 5543 5542 5541 5539 5538 5537
5539 5538 5536 5535 5534 5533 5532 5532 5533 5533 5534 5535 5535 5535 5536 5536 5536 5535 5536 5536 5537 5537 5538 5538 5538 5538 5538 5537 5537 5537 5537 5536 5536 5535 5535 5534 5533 5533 5532 5531 5530 5529 5528
5531 5529 5528 5527 5526 5524 5524 5524 5524 5524 5525 5525 5526 5526 5526 5526 5526 5526 5526 5526 5527 5527 5528 5528 5528 5528 5528 5527 5527 5528 5527 5527 5526 5526 5525 5525 5524 5523 5523 5522 5520 5520 5519
5523 5521 5520 5519 5518 5516 5516 5516 5515 5516 5516 5516 5516 5516 5516 5517 5517 5517 5516 5517 5517 5518 5518 5518 5518 5518 5518 5517 5518 5518 5518 5518 5517 5517 5517 5516 5515 5514 5513 5512 5512 5511 5510
5515 5513 5512 5511 5509 5508 5507 5507 5507 5507 5507 5507 5507 5507 5507 5507 5508 5508 5507 5508 5508 5508 5508 5508 5508 5508 5508 5508 5508 5509 5509 5509 5508 5508 5507 5507 5506 5505 5505 5504 5503 5502 5502
5507 5506 5504 5503 5502 5500 5500 5499 5499 5499 5499 5498 5498 5498 5498 5499 5499 5499 5499 5499 5499 5499 5499 5499 5499 5499 5499 5499 5499 5500 5500 5500 5499 5499 5499 5498 5498 5497 5496 5496 5495 5495 5495
5500 5499 5497 5496 5495 5494 5493 5492 5491 5491 5491 5491 5490 5490 5490 5490 5491 5490 5490 5490 5490 5490 5490 5490 5490 5490 5490 5490 5491 5491 5491 5491 5491 5490 5490 5490 5490 5489 5489 5489 5488 5488 5488
5494 5492 5491 5490 5489 5488 5487 5486 5485 5485 5484 5484 5483 5483 5483 5483 5483 5483 5483 5482 5482 5482 5481 5481 5481 5482 5482 5482 5482 5482 5482 5482 5482 5482 5482 5482 5482 5482 5482 5482 5482 5482 5482
5488 5486 5485 5484 5483 5483 5481 5480 5479 5479 5478 5477 5477 5477 5477 5477 5477 5476 5476 5475 5475 5474 5474 5473 5474 5474 5474 5474 5474 5474 5474 5474 5474 5474 5475 5475 5475 5475 5475 5475 5476 5476 5476
5482 5481 5480 5479 5478 5477 5476 5475 5473 5472 5472 5471 5470 5470 5470 5470 5470 5470 5469 5469 5468 5468 5467 5467 5467 5467 5467 5467 5467 5467 5467 5467 5467 5468 5468 5468 5468 5468 5469 5469 5470 5470 5470
5476 5475 5474 5473 5472 5472 5471 5470 5468 5467 5466 5465 5464 5464 5464 5464 5464 5463 5463 5463 5462 5461 5461 5461 5461 5461 5461 5460 5460 5460 5460 5461 5461 5461 5461 5461 5461 5462 5462 5463 5463 5464 5464
5470 5469 5469 5468 5467 5466 5465 5464 5463 5462 5461 5460 5460 5459 5459 5459 5458 5458 5457 5457 5456 5456 5456 5456 5455 5455 5455 5454 5454 5454 5454 5455 5455 5455 5455 5455 5455 5455 5456 5457 5458 5458 5459
5465 5464 5464 5463 5462 5461 5460 5459 5458 5457 5457 5456 5455 5455 5454 5454 5453 5453 5452 5452 5451 5451 5451 5450 5450 5450 5450 5449 5449 5449 5449 5449 5450 5450 5450 5450 5450 5451 5451 5452 5452 5453 5453
5461 5460 5459 5458 5458 5457 5456 5455 5454 5453 5453 5452 5451 5450 5450 5449 5448 5448 5447 5447 5446 5446 5446 5445 5445 5444 5444 5444 5444 5444 5444 5445 5445 5445 5445 5445 5446 5446 5446 5447 5448 5448 5448
5456 5455 5455 5454 5454 5453 5452 5451 5450 5449 5449 5448 5447 5446 5445 5444 5444 5443 5442 5442 5441 5441 5440 5440 5440 5439 5439 5439 5439 5439 5440 5440 5440 5441 5441 5441 5441 5442 5442 5443 5443 5444 5445
5452 5451 5450 5450 5449 5449 5448 5447 5446 5446 5445 5444 5443 5442 5441 5440 5439 5438 5437 5437 5436 5436 5435 5435 5435 5435 5434 5434 5435 5435 5436 5436 5437 5437 5437 5438 5438 5438 5439 5439 5440 5441 5441
5447 5447 5446 5446 5445 5445 5444 5443 5443 5442 5441 5440 5439 5438 5437 5435 5434 5434 5433 5432 5432 5431 5431 5431 5431 5431 5431 5431 5431 5431 5432 5433 5433 5434 5434 5435 5435 5435 5436 5436 5437 5437 5438
5443 5442 5442 5442 5441 5440 5440 5439 5439 5438 5437 5436 5435 5433 5432 5431 5430 5429 5428 5428 5428 5428 5427 5427 5427 5427 5427 5427 5427 5428 5428 5429 5430 5430 5431 5432 5432 5433 5433 5434 5434 5435 5435
5439 5438 5438 5437 5437 5436 5436 5435 5434 5434 5433 5432 5431 5429 5428 5427 5426 5425 5425 5424 5424 5424 5424 5424 5424 5424 5424 5424 5424 5424 5425 5426 5427 5427 5428 5429 5429 5430 5430 5431 5432 5432 5433
5435 5434 5434 5433 5433 5432 5432 5431 5430 5430 5429 5428 5427 5425 5424 5423 5422 5422 5421 5421 5421 5421 5421 5421 5420 5420 5420 5420 5421 5421 5422 5422 5423 5424 5425 5426 5426 5427 5428 5429 5429 5430 5430